| time (UTC) | temp C | wind direction | speed KPH | gust KPH | rain 1hr cm | rain 24hr cm | rain mn cm | humidity % | barometer mb |
| 20260906221532 | 35 | 127 | 1.6 | 8.0 | 0.00 | 0.00 | 0.00 | 36 | 1012.3 |
| 20260906220020 | 35 | 77 | 0.0 | 6.4 | 0.00 | 0.00 | 0.00 | 37 | 1012.2 |
| 20260906214516 | 36 | 117 | 1.6 | 8.0 | 0.00 | 0.00 | 0.00 | 39 | 1012.4 |
| 20260906213035 | 37 | 214 | 0.0 | 8.0 | 0.00 | 0.00 | 0.00 | 34 | 1012.5 |
| 20260906211540 | 36 | 122 | 4.8 | 12.9 | 0.00 | 0.00 | 0.00 | 35 | 1012.9 |
| 20260906210053 | 37 | 86 | 3.2 | 6.4 | 0.00 | 0.00 | 0.00 | 33 | 1013.0 |
| 20260906204514 | 37 | 108 | 3.2 | 8.0 | 0.00 | 0.00 | 0.00 | 32 | 1013.3 |
| 20260906203016 | 37 | 146 | 1.6 | 9.7 | 0.00 | 0.00 | 0.00 | 34 | 1013.3 |
| 20260906201537 | 36 | 99 | 1.6 | 8.0 | 0.00 | 0.00 | 0.00 | 36 | 1013.5 |
| 20260906200025 | 37 | 77 | 3.2 | 4.8 | 0.00 | 0.00 | 0.00 | 33 | 1013.5 |
| 20260906194533 | 36 | 105 | 1.6 | 6.4 | 0.00 | 0.00 | 0.00 | 35 | 1013.8 |
| 20260906193031 | 37 | 116 | 6.4 | 11.3 | 0.00 | 0.00 | 0.00 | 34 | 1014.1 |
| 20260906191548 | 36 | 90 | 1.6 | 8.0 | 0.00 | 0.00 | 0.00 | 35 | 1014.3 |
| 20260906190027 | 36 | 94 | 1.6 | 6.4 | 0.00 | 0.00 | 0.00 | 36 | 1014.4 |
| 20260906184534 | 36 | 131 | 1.6 | 9.7 | 0.00 | 0.00 | 0.00 | 37 | 1014.9 |
| 20260906183036 | 36 | 77 | 3.2 | 11.3 | 0.00 | 0.00 | 0.00 | 38 | 1014.9 |
| 20260906181538 | 36 | 91 | 3.2 | 8.0 | 0.00 | 0.00 | 0.00 | 37 | 1015.1 |
| 20260906180052 | 36 | 63 | 1.6 | 8.0 | 0.00 | 0.00 | 0.00 | 38 | 1015.3 |
| 20260906174548 | 36 | 23 | 1.6 | 4.8 | 0.00 | 0.00 | 0.00 | 39 | 1015.8 |
| 20260906173036 | 35 | 45 | 3.2 | 8.0 | 0.00 | 0.00 | 0.00 | 40 | 1016.0 |
| 20260906171533 | 35 | 100 | 1.6 | 6.4 | 0.00 | 0.00 | 0.00 | 42 | 1016.2 |
| 20260906170032 | 34 | 89 | 4.8 | 11.3 | 0.00 | 0.00 | 0.00 | 42 | 1016.5 |
| 20260906164523 | 35 | 126 | 1.6 | 4.8 | 0.00 | 0.00 | 0.00 | 40 | 1016.4 |
| 20260906163027 | 35 | 141 | 0.0 | 3.2 | 0.00 | 0.00 | 0.00 | 42 | 1016.4 |
| 20260906161510 | 33 | 110 | 1.6 | 4.8 | 0.00 | 0.00 | 0.00 | 44 | 1016.3 |
| 20260906160033 | 33 | 22 | 0.0 | 4.8 | 0.00 | 0.00 | 0.00 | 45 | 1016.4 |
| 20260906154516 | 32 | 304 | 0.0 | 3.2 | 0.00 | 0.00 | 0.00 | 49 | 1016.3 |
| 20260906153034 | 32 | 340 | 1.6 | 4.8 | 0.00 | 0.00 | 0.00 | 50 | 1016.2 |
| 20260906151535 | 31 | 332 | 1.6 | 4.8 | 0.00 | 0.00 | 0.00 | 52 | 1016.3 |
| 20260906150018 | 30 | 300 | 1.6 | 6.4 | 0.00 | 0.00 | 0.00 | 54 | 1016.2 |
| 20260906144541 | 31 | 263 | 0.0 | 1.6 | 0.00 | 0.00 | 0.00 | 53 | 1016.4 |
| 20260906143042 | 30 | 94 | 0.0 | 1.6 | 0.00 | 0.00 | 0.00 | 55 | 1016.2 |
| 20260906141523 | 29 | 148 | 0.0 | 1.6 | 0.00 | 0.00 | 0.00 | 56 | 1016.3 |
| 20260906140036 | 28 | 259 | 0.0 | 0.0 | 0.00 | 0.00 | 0.00 | 58 | 1016.3 |
| 20260906134511 | 27 | 176 | 0.0 | 0.0 | 0.00 | 0.00 | 0.00 | 60 | 1016.2 |
| 20260906133023 | 25 | 214 | 0.0 | 0.0 | 0.00 | 0.00 | 0.00 | 65 | 1016.1 |
| 20260906131532 | 25 | 171 | 0.0 | 0.0 | 0.00 | 0.00 | 0.00 | 67 | 1015.9 |
| 20260906130026 | 23 | 177 | 0.0 | 0.0 | 0.00 | 0.00 | 0.00 | 70 | 1015.8 |
| 20260906124527 | 23 | 177 | 0.0 | 0.0 | 0.00 | 0.00 | 0.00 | 71 | 1015.7 |
| 20260906123048 | 23 | 177 | 0.0 | 0.0 | 0.00 | 0.00 | 0.00 | 71 | 1015.5 |
| 20260906121541 | 23 | 177 | 0.0 | 0.0 | 0.00 | 0.00 | 0.00 | 70 | 1015.2 |
| 20260906120031 | 23 | 177 | 0.0 | 0.0 | 0.00 | 0.00 | 0.00 | 69 | 1015.0 |
| 20260906114530 | 23 | 177 | 0.0 | 0.0 | 0.00 | 0.00 | 0.00 | 68 | 1015.0 |
| 20260906113034 | 23 | 177 | 0.0 | 0.0 | 0.00 | 0.00 | 0.00 | 68 | 1014.8 |
| 20260906111513 | 24 | 177 | 0.0 | 0.0 | 0.00 | 0.00 | 0.00 | 68 | 1014.7 |
| 20260906110016 | 24 | 167 | 0.0 | 0.0 | 0.00 | 0.00 | 0.00 | 68 | 1014.6 |
| 20260906104521 | 24 | 167 | 0.0 | 0.0 | 0.00 | 0.00 | 0.00 | 68 | 1014.6 |
| 20260906103035 | 24 | 167 | 0.0 | 0.0 | 0.00 | 0.00 | 0.00 | 67 | 1014.5 |
| 20260906101533 | 24 | 167 | 0.0 | 0.0 | 0.00 | 0.00 | 0.00 | 66 | 1014.3 |
| 20260906100032 | 25 | 167 | 0.0 | 0.0 | 0.00 | 0.00 | 0.00 | 65 | 1014.4 |
| 20260906094520 | 25 | 167 | 0.0 | 0.0 | 0.00 | 0.00 | 0.00 | 63 | 1014.3 |
| 20260906093036 | 25 | 167 | 0.0 | 0.0 | 0.00 | 0.00 | 0.00 | 62 | 1014.2 |
| 20260906091530 | 26 | 167 | 0.0 | 0.0 | 0.00 | 0.00 | 0.00 | 62 | 1014.0 |
| 20260906090050 | 26 | 154 | 0.0 | 0.0 | 0.00 | 0.00 | 0.00 | 61 | 1014.1 |
| 20260906084538 | 26 | 154 | 0.0 | 0.0 | 0.00 | 0.00 | 0.00 | 61 | 1014.1 |
| 20260906083026 | 26 | 177 | 0.0 | 1.6 | 0.00 | 0.00 | 0.00 | 60 | 1014.1 |
| 20260906081526 | 27 | 242 | 0.0 | 3.2 | 0.00 | 0.00 | 0.00 | 59 | 1014.0 |
| 20260906080031 | 27 | 172 | 1.6 | 4.8 | 0.00 | 0.00 | 0.00 | 58 | 1013.9 |
| 20260906074532 | 27 | 167 | 0.0 | 4.8 | 0.00 | 0.00 | 0.00 | 57 | 1014.0 |
| 20260906073016 | 27 | 160 | 0.0 | 6.4 | 0.00 | 0.00 | 0.00 | 55 | 1014.3 |
| 20260906071524 | 28 | 167 | 0.0 | 3.2 | 0.00 | 0.00 | 0.00 | 54 | 1014.4 |
| 20260906070006 | 28 | 139 | 1.6 | 6.4 | 0.00 | 0.00 | 0.00 | 52 | 1014.5 |
| 20260906064508 | 28 | 168 | 0.0 | 4.8 | 0.00 | 0.00 | 0.00 | 50 | 1014.6 |
| 20260906063043 | 28 | 165 | 0.0 | 3.2 | 0.00 | 0.00 | 0.00 | 51 | 1014.6 |
| 20260906061534 | 27 | 96 | 0.0 | 1.6 | 0.00 | 0.00 | 0.00 | 53 | 1014.7 |
| 20260906060034 | 27 | 96 | 0.0 | 1.6 | 0.00 | 0.00 | 0.00 | 53 | 1015.0 |
| 20260906054506 | 27 | 64 | 0.0 | 1.6 | 0.00 | 0.00 | 0.00 | 53 | 1014.8 |
| 20260906053030 | 28 | 64 | 0.0 | 1.6 | 0.00 | 0.00 | 0.00 | 51 | 1014.6 |
| 20260906051550 | 28 | 82 | 0.0 | 3.2 | 0.00 | 0.00 | 0.00 | 49 | 1014.8 |
| 20260906050023 | 28 | 105 | 0.0 | 3.2 | 0.00 | 0.00 | 0.00 | 48 | 1014.6 |
| 20260906044526 | 29 | 155 | 0.0 | 1.6 | 0.00 | 0.00 | 0.00 | 48 | 1014.7 |
| 20260906043005 | 29 | 82 | 1.6 | 4.8 | 0.00 | 0.00 | 0.00 | 48 | 1014.7 |
| 20260906041513 | 30 | 158 | 0.0 | 9.7 | 0.00 | 0.00 | 0.00 | 47 | 1014.7 |
| 20260906040037 | 30 | 134 | 1.6 | 6.4 | 0.00 | 0.00 | 0.00 | 47 | 1014.6 |
| 20260906034529 | 30 | 162 | 1.6 | 4.8 | 0.00 | 0.00 | 0.00 | 45 | 1014.4 |
| 20260906033028 | 30 | 129 | 1.6 | 6.4 | 0.00 | 0.00 | 0.00 | 44 | 1014.3 |
| 20260906031507 | 31 | 113 | 1.6 | 6.4 | 0.00 | 0.00 | 0.00 | 43 | 1014.0 |
| 20260906030034 | 31 | 75 | 1.6 | 11.3 | 0.00 | 0.00 | 0.00 | 43 | 1013.9 |
| 20260906024521 | 31 | 88 | 3.2 | 6.4 | 0.00 | 0.00 | 0.00 | 42 | 1013.6 |
| 20260906023033 | 32 | 96 | 4.8 | 14.5 | 0.00 | 0.00 | 0.00 | 41 | 1013.4 |
| 20260906021535 | 32 | 96 | 3.2 | 9.7 | 0.00 | 0.00 | 0.00 | 40 | 1013.2 |
| 20260906020029 | 32 | 129 | 3.2 | 8.0 | 0.00 | 0.00 | 0.00 | 39 | 1013.1 |
| 20260906014525 | 32 | 124 | 1.6 | 11.3 | 0.00 | 0.00 | 0.00 | 38 | 1012.9 |
| 20260906013003 | 33 | 100 | 3.2 | 9.7 | 0.00 | 0.00 | 0.00 | 37 | 1012.6 |
| 20260906011504 | 33 | 114 | 3.2 | 11.3 | 0.00 | 0.00 | 0.00 | 37 | 1012.3 |
| 20260906010011 | 33 | 105 | 3.2 | 8.0 | 0.00 | 0.00 | 0.00 | 37 | 1012.1 |
| 20260906004513 | 34 | 101 | 4.8 | 16.1 | 0.00 | 0.00 | 0.00 | 36 | 1012.0 |
| 20260906003011 | 35 | 143 | 4.8 | 12.9 | 0.00 | 0.00 | 0.00 | 35 | 1012.0 |
| 20260906001510 | 35 | 131 | 4.8 | 19.3 | 0.00 | 0.00 | 0.00 | 35 | 1011.9 |
| 20260906000006 | 35 | 148 | 3.2 | 6.4 | 0.00 | 0.00 | 0.00 | 35 | 1011.8 |
| 20260905234511 | 36 | 131 | 1.6 | 4.8 | 0.00 | 0.00 | 0.00 | 36 | 1011.7 |
| 20260905233014 | 36 | 94 | 3.2 | 9.7 | 0.00 | 0.00 | 0.00 | 35 | 1011.6 |
| 20260905231522 | 36 | 85 | 3.2 | 9.7 | 0.00 | 0.00 | 0.00 | 34 | 1011.4 |
| 20260905230004 | 37 | 117 | 3.2 | 9.7 | 0.00 | 0.00 | 0.00 | 33 | 1011.5 |
| 20260905224515 | 37 | 105 | 1.6 | 16.1 | 0.00 | 0.00 | 0.00 | 32 | 1011.6 |
| 20260905223008 | 37 | 164 | 0.0 | 6.4 | 0.00 | 0.00 | 0.00 | 33 | 1011.6 |